Skip Page Navigation
NASA JPL Caltech
NASA Logo - Jet Propulsion Laboratory + View the NASA Portal
+ Center for Near-Earth Object Studies
JPL Home Earth Solar System Stars & Galaxies Technology
JPL Solar System Dynamics
BODIES ORBITS EPHEMERIDES TOOLS PHYSICAL DATA DISCOVERY FAQ SITE MAP
JPL Small-Body Database Browser
Search: [ help ]  
434631 (2005 VB114)
Classification: Outer Main-belt Asteroid          SPK-ID: 2434631
Ephemeris | Orbit Diagram | Orbital Elements | Mission Design | Physical Parameters | Discovery Circumstances | Close-Approach Data ]

[ show orbit diagram ]
Orbital Elements at Epoch 2459000.5 (2020-May-31.0) TDB
Reference: JPL 11 (heliocentric ecliptic J2000)
 Element Value Uncertainty (1-sigma)   Units 
e .1270409579491859 1.2061e-07  
a 3.426029537839246 6.6452e-08 au
q 2.990783463389941 4.2558e-07 au
i 13.65943533358402 8.7194e-06 deg
node 245.1158377225156 4.9041e-05 deg
peri 118.1025075492114 5.6629e-05 deg
M 154.8014177279757 3.2088e-05 deg
tp 2458004.504183320488
(2017-Sep-08.00418332)
0.00019583 TDB
period 2316.248127873739
6.34
6.739e-05
1.845e-07
d
yr
n .1554237629672567 4.522e-09 deg/d
Q 3.861275612288551 7.4894e-08 au
  Orbit Determination Parameters
   # obs. used (total)      106  
   data-arc span      5274 days (14.44 yr)  
   first obs. used      2005-11-10  
   last obs. used      2020-04-19  
   planetary ephem.      DE431  
   SB-pert. ephem.      SB431-N16  
   condition code      0  
   norm. resid. RMS      .49363  
   source      ORB  
   producer      Otto Matic  
   solution date      2020-May-22 03:26:43  

Additional Information
 Earth MOID = 2.02115 au 
 Jupiter MOID = 1.74787 au 
 T_jup = 3.083 
[ hide covariance matrix ]
Orbital Elements at Epoch 2457903.5 (2017-May-30.0) TDB
Reference: JPL 11 (heliocentric ecliptic J2000)
 Element Value Uncertainty (1-sigma)   Units 
e .1262407930673914 1.2061e-07  
q 2.994585188822088 4.2552e-07 au
tp 2458005.279841099425
(2017-Sep-08.77984110)
0.00019712 TDB
node 245.1296270865671 4.9032e-05 deg
peri 118.3599436543259 5.6727e-05 deg
i 13.65860231224374 8.7202e-06 deg
  Orbit Determination Parameters
   # obs. used (total)      106  
   data-arc span      5274 days (14.44 yr)  
   first obs. used      2005-11-10  
   last obs. used      2020-04-19  
   planetary ephem.      DE431  
   SB-pert. ephem.      SB431-N16  
   condition code      0  
   norm. resid. RMS      .49363  
   source      ORB  
   producer      Otto Matic  
   solution date      2020-May-22 03:26:43  

Additional Information
 Jupiter MOID = 1.74787 au 
 T_jup = 3.083 
Orbit Covariance (6×6)
  e q tp node peri i
e 1.454686614749236E-14 -5.085505370381266E-14 1.944921680724168E-13 -1.749021542821924E-13 -1.285323762055691E-13 -1.393107985576961E-16
q -5.085505370381266E-14 1.810635964228032E-13 2.786288872010609E-12 6.241111288625984E-13 9.056527009271607E-13 1.011885447385218E-15
tp 1.944921680724168E-13 2.786288872010609E-12 3.8856491025567E-8 5.436932004992456E-11 5.927021196557774E-9 -1.687089164978254E-11
node -1.749021542821924E-13 6.241111288625984E-13 5.436932004992456E-11 2.40414559162839E-9 -2.324115410625314E-9 -1.635255350372108E-10
peri -1.285323762055691E-13 9.056527009271607E-13 5.927021196557774E-9 -2.324115410625314E-9 3.217917055658873E-9 1.562595805541208E-10
i -1.393107985576961E-16 1.011885447385218E-15 -1.687089164978254E-11 -1.635255350372108E-10 1.562595805541208E-10 7.604251130854885E-11

Ephemeris | Orbit Diagram | Orbital Elements | Mission Design | Physical Parameters | Discovery Circumstances | Close-Approach Data ]

Physical Parameter Table
Parameter Symbol Value Units Sigma Reference Notes
absolute magnitude H 15.6   n/a MPO335588  

434631 (2005 VB114)          Discovered 2005-Nov-10 by Mt. Lemmon Survey at Mount Lemmon
Reference: Last Updated: 2015-06-04

[ show close-approach data ]
Alternate Designations
 2005 VB114 = 2010 HL92 
Ephemeris | Orbit Diagram | Orbital Elements | Mission Design | Physical Parameters | Discovery Circumstances | Close-Approach Data ]
ABOUT SSD CREDITS/AWARDS PRIVACY/COPYRIGHT GLOSSARY LINKS
FirstGov 2020-Aug-04 08:28 UT
(server date/time)  
NASA Home Page
Site Manager:   Ryan S. Park
Webmaster  Alan B. Chamberlin